Regional Weather Roundup
Issued by NWS Kansas City/Pleasant Hill, MO

Home | Current Version | Previous Version | Graphics & Text | Print | Product List | Glossary Off
Versions: 1 2 3 4 5 6 7 8 9 10 11 12 13 14 15 16 17 18 19 20 21 22 23 24 25 26 27

000
ASUS43 KEAX 260310
RWREAX

WEATHER ROUNDUP FOR EASTERN KANSAS AND NORTHWEST MISSOURI
NATIONAL WEATHER SERVICE KANSAS CITY/PLEASANT HILL MO
1000 PM CDT WED MAY 25 2016

KSZ040-057-103>105-MOZ028-029-037-043-260400-
...KANSAS CITY METROPOLITAN AREA...

CITY           SKY/WX    TMP DP  RH WIND       PRES   REMARKS
K.C. INTL      MOCLDY    75  68  78 S10       29.86S
K.C. DOWNTOWN  PTCLDY    79  69  71 S9        29.86R
LEES SUMMIT    PTCLDY    77  68  73 SE9       29.88R
OLATHE - IXD   MOCLDY    75  70  84 E6        29.89R
OLATHE - OJC   CLOUDY    75  69  81 SE5       29.88R
LAWRENCE       CLOUDY    78  70  76 SE14      29.86R

$$

MOZ001>008-011>017-020>025-030>033-038>040-044>046-053-054-260400-
...NORTHERN AND CENTRAL MISSOURI...

CITY           SKY/WX    TMP DP  RH WIND       PRES   REMARKS
ST. JOSEPH     CLOUDY    77  67  71 SE5       29.85R
MOSBY          PTCLDY    77  64  65 SE5       29.86S
WARRENSBURG    MOCLDY    73  64  73 SE7       29.89S
WHITEMAN AFB   MOCLDY    75  68  78 S9        29.90R
CLINTON        MOCLDY    75  66  73 S10       29.91R
SEDALIA        PTCLDY    74  66  76 S8        29.93R
WARSAW         NOT AVBL
CHILLICOTHE      N/A     75  66  73 CALM      29.88S
KIRKSVILLE     MOCLDY    72  65  78 SE8       29.91S

$$

MOZ041-047>049-056>058-063>065-088>090-097-260400-
...EASTERN AND SOUTHERN MISSOURI...

CITY           SKY/WX    TMP DP  RH WIND       PRES   REMARKS
ST. LOUIS INTL PTCLDY    76  63  64 S8        29.98R
SPIRIT OF STL  CLEAR     75  65  70 S3        29.96R
COLUMBIA       CLOUDY    73  64  73 S9        29.94R
JEFFERSON CITY PTCLDY    74  64  71 SE7       29.94R
ROLLA          CLEAR     70  65  84 S10       29.97R
SPRINGFIELD    MOCLDY    73  66  78 SE16      29.96R
JOPLIN         CLEAR     75  71  87 SE9       29.90S
WEST PLAINS    MOCLDY    72  66  81 S10       30.04R

$$

IAZ060-094-KSZ022-034>040-054-083-096-NEZ052-066-093-260400-
...KANSAS...SOUTHEAST NEBRASKA AND IOWA...

CITY           SKY/WX    TMP DP  RH WIND       PRES   REMARKS
TOPEKA         CLOUDY    77  70  79 SE10      29.82S
MANHATTAN      TSTM      68  57  68 SE10G26   29.79F
EMPORIA        CLEAR     76  72  87 S13       29.82R
CHANUTE        CLOUDY    77  72  84 S7        29.86R
WICHITA        CLOUDY    80  72  76 S14       29.81R
OMAHA          PTCLDY    71  66  84 SE7       29.83R
LINCOLN        MOCLDY    74  68  81 E5        29.84R
FALLS CITY     CLOUDY    75  68  78 SE7       29.82S
LAMONI         CLOUDY    73  65  75 SE6       29.87R
DES MOINES     MOCLDY    76  64  66 SE6       29.85S

$$





USA.gov is the U.S. government's official web portal to all federal, state and local government web resources and services.